This is the latest recevied weather packets stored in our database for station/object N4DBJ. If no packets are shown the sender has not sent any weather packets the latest 10 day(s).
| Time | Temp. | Humidity | Pressure | Rain* | Wind** | Luminosity | Snow |
|---|---|---|---|---|---|---|---|
| 1777971545 | 11.67° C | 91% | 1007.8 hPa | 0 mm | - | 0 W/m² | - |
| 1777971243 | 12.22° C | 91% | 1007.9 hPa | 0 mm | - | 0 W/m² | - |
| 1777970941 | 12.22° C | 91% | 1008.1 hPa | 0 mm | - | 0 W/m² | - |
| 1777970639 | 12.22° C | 90% | 1008.1 hPa | 0 mm | - | 0 W/m² | - |
| 1777970336 | 12.22° C | 90% | 1007.9 hPa | 0 mm | - | 0 W/m² | - |
| 1777970034 | 12.78° C | 89% | 1008 hPa | 0 mm | - | 0 W/m² | - |
| 1777969730 | 12.78° C | 88% | 1007.8 hPa | 0 mm | - | 0 W/m² | - |
| 1777969426 | 12.78° C | 88% | 1008 hPa | 0 mm | - | 0 W/m² | - |
| 1777969123 | 12.78° C | 87% | 1007.8 hPa | 0 mm | - | 0 W/m² | - |
| 1777968819 | 13.33° C | 87% | 1007.6 hPa | 0 mm | - | 0 W/m² | - |
| 1777968516 | 13.33° C | 86% | 1007.5 hPa | 0 mm | - | 0 W/m² | - |
| 1777968212 | 13.33° C | 85% | 1007.5 hPa | 0 mm | - | 0 W/m² | - |
| 1777967908 | 13.33° C | 85% | 1007.7 hPa | 0 mm | - | 0 W/m² | - |
| 1777967605 | 13.33° C | 85% | 1007.8 hPa | 0 mm | - | 0 W/m² | - |
| 1777967302 | 13.89° C | 84% | 1007.5 hPa | 0 mm | - | 0 W/m² | - |
| 1777966999 | 13.89° C | 83% | 1007.7 hPa | 0 mm | - | 0 W/m² | - |
| 1777966697 | 13.89° C | 82% | 1007.7 hPa | 0 mm | - | 0 W/m² | - |
| 1777966395 | 14.44° C | 80% | 1007.7 hPa | 0 mm | - | 0 W/m² | - |
| 1777966091 | 14.44° C | 79% | 1007.7 hPa | 0 mm | - | 0 W/m² | - |
| 1777965787 | 15° C | 77% | 1007.8 hPa | 0 mm | - | 0 W/m² | - |
| 1777965483 | 15° C | 78% | 1007.7 hPa | 0 mm | - | 0 W/m² | - |
| 1777965180 | 15° C | 78% | 1007.9 hPa | 0 mm | - | 0 W/m² | - |
| 1777964878 | 14.44° C | 78% | 1007.6 hPa | 0 mm | - | 0 W/m² | - |
| 1777964574 | 14.44° C | 80% | 1007.6 hPa | 0 mm | - | 0 W/m² | - |
| 1777964269 | 14.44° C | 81% | 1007.7 hPa | 0 mm | - | 0 W/m² | - |
* Rain latest hour (hover to see other rain measurements)
** Current wind speed in m/s (hover to see current wind gust speed)